Date String (YYYY-MM-DD hh:mm:ss) UTC,Instrument flags,absolute air pressure of the measurement (hPa),sample flow rate (lpm),inlet stack bypass flow (lpm),air temperature of the measurement (°C),ambient temperature measured by the external sensor (°C),aerosol sample conditioner tube jacket temperature (°C),OPC LED temperature (°C),internal box temperature (°C),relative humidity of the measurement (%),span deviation,mass concentration of particles derived from Lorenz-Mie calculation of OPC scattering (μg/m³),mass concentration of particles derived from Lorenz-Mie calculation of OPC scattering (μg/m³),mass concentration of particles derived from Lorenz-Mie calculation of OPC scattering (μg/m³)
DateTimeUTC,F1_M11,P_M11,Q1_M11,Q2_M11,T1_M11,T2_M11,T3_M11,T4_M11,T5_M11,U1_M11,ZSPAN_M11,X2_M11,X0_M11,X1_M11
2023-12-15 04:00:00,SystemResetWarning,0831.9,5.01,000.00,018.7,017.6,000.0,027.2,020.0,27.1,0000.6,0020.13,0030.51,0019.08
2023-12-15 04:01:00,SystemResetWarning,0831.8,5.01,000.00,018.7,017.6,000.0,027.2,020.0,27.8,0000.7,0019.96,0029.95,0018.93
2023-12-15 04:02:00,SystemResetWarning,0831.9,5.01,000.00,018.7,017.6,000.0,027.2,020.0,25.1,0000.8,0019.93,0029.64,0018.88
2023-12-15 04:03:00,SystemResetWarning,0831.9,5.00,000.00,018.7,017.6,000.0,027.2,020.0,24.1,0000.8,0019.92,0029.83,0018.88
2023-12-15 04:04:00,SystemResetWarning,0831.9,5.00,000.00,018.7,017.6,000.0,027.2,020.0,23.8,0000.6,0019.94,0030.15,0018.90
2023-12-15 04:05:00,SystemResetWarning,0831.9,5.00,000.00,018.7,017.6,000.0,027.2,020.0,23.8,0000.6,0019.96,0031.19,0018.88
2023-12-15 04:06:00,SystemResetWarning,0831.8,5.00,000.00,018.7,017.6,000.0,027.1,020.0,23.7,0000.6,0019.92,0031.48,0018.84
2023-12-15 04:07:00,SystemResetWarning,0831.8,5.00,000.00,018.7,017.6,000.0,027.1,020.0,23.6,0000.6,0019.87,0031.12,0018.84
2023-12-15 04:08:00,SystemResetWarning,0831.8,5.00,000.00,018.7,017.6,000.0,027.1,020.0,23.6,0000.6,0019.86,0030.33,0018.86
2023-12-15 04:09:00,SystemResetWarning,0832.0,5.00,000.00,018.7,017.6,000.0,027.1,020.0,23.6,0000.6,0019.88,0030.16,0018.85
2023-12-15 04:10:00,SystemResetWarning,0832.0,4.99,000.00,018.7,017.6,000.0,027.1,020.0,23.6,0000.7,0019.84,0030.05,0018.84
2023-12-15 04:11:00,SystemResetWarning,0832.0,5.00,000.00,018.7,017.6,000.0,027.1,020.0,23.6,0000.6,0019.83,0030.07,0018.84
2023-12-15 04:12:00,SystemResetWarning,0831.9,5.00,000.00,018.7,017.6,000.0,027.1,020.0,23.6,0000.7,0019.95,0030.30,0018.98
2023-12-15 04:13:00,SystemResetWarning,0832.0,5.00,000.00,018.7,017.6,000.0,027.1,020.0,23.6,0000.5,0019.97,0030.23,0019.02
2023-12-15 04:14:00,SystemResetWarning,0832.0,5.00,000.00,018.7,017.7,000.0,027.1,020.0,23.6,0000.5,0019.97,0029.77,0019.02
2023-12-15 04:15:00,SystemResetWarning,0832.0,5.00,000.00,018.7,017.7,000.0,027.1,020.0,23.6,0000.6,0020.01,0029.81,0019.01
2023-12-15 04:16:00,SystemResetWarning,0832.0,5.00,000.00,018.7,017.6,000.0,027.1,020.0,23.7,0000.5,0020.01,0029.00,0019.05
2023-12-15 04:17:00,SystemResetWarning,0832.0,5.00,000.00,018.7,017.6,000.0,027.1,020.0,23.6,0000.5,0020.12,0028.45,0019.13
2023-12-15 04:18:00,SystemResetWarning,0832.0,5.00,000.00,018.7,017.6,000.0,027.1,020.0,23.5,0000.5,0020.21,0028.68,0019.21
2023-12-15 04:19:00,SystemResetWarning,0832.0,5.00,000.00,018.7,017.6,000.0,027.1,020.0,23.3,0000.6,0020.23,0028.76,0019.27
2023-12-15 04:20:00,SystemResetWarning,0832.0,5.00,000.00,018.7,017.6,000.0,027.1,020.0,23.3,0000.6,0020.25,0028.95,0019.31
2023-12-15 04:21:00,SystemResetWarning,0832.0,5.00,000.00,018.7,017.6,000.0,027.1,020.0,23.1,0000.5,0020.28,0029.02,0019.36
2023-12-15 04:22:00,SystemResetWarning,0832.0,5.00,000.00,018.7,017.6,000.0,027.1,020.0,23.0,0000.5,0020.37,0029.10,0019.40
2023-12-15 04:23:00,SystemResetWarning,0832.0,5.01,000.00,018.7,017.6,000.0,027.1,020.0,23.1,0000.4,0020.39,0029.44,0019.41
2023-12-15 04:24:00,SystemResetWarning,0832.0,5.01,000.00,018.7,017.6,000.0,027.1,020.0,23.3,0000.4,0020.42,0029.32,0019.42
2023-12-15 04:25:00,SystemResetWarning,0832.1,5.00,000.00,018.7,017.7,000.0,027.1,020.0,23.3,0000.4,0020.46,0029.51,0019.47
2023-12-15 04:26:00,SystemResetWarning,0832.1,4.99,000.00,018.7,017.7,000.0,027.1,020.0,23.0,0000.4,0020.44,0029.32,0019.51
2023-12-15 04:27:00,SystemResetWarning,0832.0,5.00,000.00,018.7,017.7,000.0,027.1,020.0,23.0,0000.5,0020.42,0029.19,0019.54
2023-12-15 04:28:00,SystemResetWarning,0832.0,5.00,000.00,018.7,017.7,000.0,027.1,020.0,23.0,0000.6,0020.41,0029.04,0019.58
2023-12-15 04:29:00,SystemResetWarning,0832.0,5.00,000.00,018.7,017.7,000.0,027.1,020.0,23.0,0000.8,0020.39,0029.15,0019.59
2023-12-15 04:30:00,SystemResetWarning,0832.1,5.00,000.00,018.7,017.7,000.0,027.1,020.0,23.1,0000.9,0020.47,0029.16,0019.63
2023-12-15 04:31:00,SystemResetWarning,0832.1,5.00,000.00,018.7,017.7,000.0,027.1,020.0,23.1,0000.9,0020.54,0029.14,0019.71
2023-12-15 04:32:00,SystemResetWarning,0832.0,5.00,000.00,018.7,017.7,000.0,027.1,020.0,23.0,0001.0,0020.61,0029.14,0019.76
2023-12-15 04:33:00,SystemResetWarning,0832.0,5.00,000.00,018.7,017.7,000.0,027.1,020.0,23.0,0001.1,0020.63,0029.12,0019.82
2023-12-15 04:34:00,SystemResetWarning,0832.0,5.00,000.00,018.7,017.7,000.0,027.1,020.0,23.2,0001.1,0020.68,0028.79,0019.87
2023-12-15 04:35:00,SystemResetWarning,0832.0,5.00,000.00,018.7,017.7,000.0,027.1,020.0,23.2,0001.1,0020.77,0028.96,0019.92
2023-12-15 04:36:00,SystemResetWarning,0832.1,5.00,000.00,018.7,017.6,000.0,027.1,020.0,23.1,0001.1,0020.82,0028.95,0019.93
2023-12-15 04:37:00,SystemResetWarning,0832.1,5.00,000.00,018.7,017.7,000.0,027.1,020.0,23.2,0001.2,0020.83,0028.86,0019.94
2023-12-15 04:38:00,SystemResetWarning,0832.1,5.00,000.00,018.7,017.7,000.0,027.1,020.0,23.3,0001.3,0020.84,0028.74,0019.95
2023-12-15 04:39:00,SystemResetWarning,0832.2,5.00,000.00,018.7,017.6,000.0,027.1,020.0,23.2,0001.3,0020.78,0028.54,0019.90
2023-12-15 04:40:00,SystemResetWarning,0832.2,5.00,000.00,018.7,017.6,000.0,027.1,020.1,23.2,0001.3,0020.81,0028.34,0019.89
2023-12-15 04:41:00,SystemResetWarning,0832.2,5.00,000.00,018.8,017.8,000.0,027.1,020.5,23.1,0001.1,0020.82,0028.37,0019.86
2023-12-15 04:42:00,SystemResetWarning,0832.3,5.00,000.00,018.9,018.5,000.0,027.1,020.8,22.9,0001.1,0020.76,0028.33,0019.80
2023-12-15 04:43:00,SystemResetWarning,0832.2,4.99,000.00,019.0,018.6,000.0,027.1,020.6,22.6,0001.0,0020.78,0028.79,0019.79
2023-12-15 04:44:00,SystemResetWarning,0832.2,4.98,000.00,018.9,018.6,000.0,027.1,020.4,22.7,0000.9,0020.81,0029.23,0019.75
2023-12-15 04:45:00,SystemResetWarning,0832.2,5.01,000.00,018.9,018.5,000.0,027.1,020.3,22.7,0000.9,0020.83,0029.68,0019.75
2023-12-15 04:46:00,SystemResetWarning,0832.2,5.00,000.00,018.9,018.4,000.0,027.1,020.2,22.7,0001.1,0020.79,0029.57,0019.72
2023-12-15 04:47:00,SystemResetWarning,0832.2,5.00,000.00,018.9,018.4,000.0,027.1,020.1,22.7,0001.1,0020.76,0029.79,0019.72
2023-12-15 04:48:00,SystemResetWarning,0832.3,5.00,000.00,018.9,018.3,000.0,027.1,020.1,22.8,0001.2,0020.75,0030.15,0019.72
2023-12-15 04:49:00,SystemResetWarning,0832.3,5.00,000.00,018.9,018.2,000.0,027.1,020.1,22.7,0001.1,0020.78,0030.31,0019.72
2023-12-15 04:50:00,SystemResetWarning,0832.3,5.00,000.00,018.9,018.2,000.0,027.1,020.0,22.7,0001.1,0020.86,0030.52,0019.77
2023-12-15 04:51:00,SystemResetWarning,0832.3,5.00,000.00,018.8,018.1,000.0,027.1,020.0,22.8,0001.1,0020.88,0030.61,0019.81
2023-12-15 04:52:00,SystemResetWarning,0832.3,5.00,000.00,018.8,018.1,000.0,027.1,020.0,22.8,0001.1,0020.85,0030.61,0019.83
2023-12-15 04:53:00,SystemResetWarning,0832.3,5.00,000.00,018.8,018.1,000.0,027.1,020.0,22.7,0001.1,0020.96,0031.02,0019.89
2023-12-15 04:54:00,SystemResetWarning,0832.3,5.00,000.00,018.8,018.0,000.0,027.1,020.0,22.6,0001.1,0020.97,0030.60,0019.93
2023-12-15 04:55:00,SystemResetWarning,0832.3,5.00,000.00,018.8,018.0,000.0,027.1,020.0,22.7,0001.1,0020.94,0030.49,0019.95
2023-12-15 04:56:00,SystemResetWarning,0832.3,5.00,000.00,018.8,018.0,000.0,027.1,020.0,22.6,0001.1,0020.96,0030.31,0019.97
2023-12-15 04:57:00,SystemResetWarning,0832.3,5.00,000.00,018.8,018.0,000.0,027.1,020.0,22.5,0001.0,0021.02,0030.63,0020.04
2023-12-15 04:58:00,SystemResetWarning,0832.3,5.00,000.00,018.8,017.9,000.0,027.1,020.0,22.5,0000.9,0021.07,0030.52,0020.08
2023-12-15 04:59:00,SystemResetWarning,0832.2,5.00,000.00,018.8,017.9,000.0,027.1,020.0,22.6,0000.8,0021.12,0030.33,0020.11
